Tracking 21092 objects as of 14-Aug-2020
HD Live streaming from Space Station
objects crossing your sky now
Track the most recent launched group of Starlink satellites

COSMOS 1486

Track COSMOS 1486 now!
10-day predictions
COSMOS 1486 is classified as:


NORAD ID: 14240
Int'l Code: 1983-079A
Perigee: 776.6 km
Apogee: 795.0 km
Inclination: 74.1 °
Period: 100.4 minutes
Semi major axis: 7156 km
RCS: 2.07 m2 (large)
Launch date: August 3, 1983
Source: Commonwealth of Independent States (former USSR) (CIS)
Launch site: PLESETSK MISSILE AND SPACE COMPLEX (PKMTR)
aabbcc
Your satellite tracking list
Your tracking list is empty




NASA's NSSDC Master Catalog

Two Line Element Set (TLE):
1 14240U 83079A   20227.52100406 -.00000022 +00000-0 +12899-5 0  9998
2 14240 074.0591 350.1077 0012876 076.0828 355.8940 14.33916124935990
Source of the keplerian elements: AFSPC